Location: Proctor
(47.8934°N, 114.3048°W)
Time: 16:27:44
(UTC+00:00)

N. Korean satellite - Visible Passes

Search period start: 24 January 2022 00:00
Search period end: 03 February 2022 00:00
Orbit: 447 x 491 km, 97.3° (Epoch: 23 January)

Date Brightness Start Highest point End Pass type
(mag) Time Alt. Az. Time Alt. Az. Time Alt. Az.
24 Jan 6.4 13:02:06 10° NNE 13:05:45 86° WNW 13:06:15 65° SSW visible
25 Jan 10.0 01:14:36 10° WSW 01:15:51 11° W 01:17:06 10° WNW visible
25 Jan 7.8 12:33:03 10° NNE 12:36:31 41° E 12:37:10 37° SE visible
25 Jan 8.1 14:06:57 10° NNW 14:09:22 17° WNW 14:11:14 12° W visible
26 Jan 9.2 12:04:26 10° NE 12:07:10 20° E 12:08:05 18° ESE visible
26 Jan 7.2 13:37:05 10° N 13:40:23 33° WNW 13:42:09 21° WSW visible
27 Jan 6.4 13:07:37 10° N 13:11:16 74° WNW 13:13:05 28° SSW visible
28 Jan 7.5 12:38:29 10° NNE 12:42:02 48° E 12:44:02 23° SSE visible
28 Jan 8.2 14:12:38 10° NNW 14:14:48 15° WNW 14:16:57 10° W visible
29 Jan 9.0 12:09:43 10° NE 12:12:39 22° E 12:15:01 13° SE visible
29 Jan 7.4 13:42:36 10° N 13:45:48 29° WNW 13:48:58 10° SW visible
30 Jan 10.0 11:42:10 10° ENE 11:43:08 11° E 11:44:05 10° ESE visible
30 Jan 6.5 13:13:03 10° N 13:16:41 63° WNW 13:20:06 11° SSW visible
31 Jan 7.2 12:43:48 10° NNE 12:47:24 56° E 12:50:57 10° S visible
31 Jan 8.4 14:18:17 10° NNW 14:20:06 13° WNW 14:21:55 10° W visible
01 Feb 8.8 12:14:55 10° NE 12:18:00 25° E 12:21:03 10° SSE visible
01 Feb 7.6 13:48:01 10° N 13:51:04 26° WNW 13:54:06 10° SW visible
02 Feb 9.9 11:46:52 10° ENE 11:48:27 12° E 11:50:02 10° ESE visible
02 Feb 6.6 13:18:22 10° N 13:21:56 54° WNW 13:25:27 10° SSW visible
